軌道要素
Epoch 2016 Jan. 13.0 TT = JDT 2457400.5
T 2016 Feb. 1.44254 TT MPCW
q 5.4009504 (2000.0) P Q
z +0.0000734 Peri. 63.11140 +0.18175955 -0.73530899
+/-0.0000281 Node 317.56260 -0.77580087 +0.30075643
e 0.9996036 Incl. 104.63048 +0.60423214 +0.60734361
From 70 observations 2016 May 16-Aug. 22, mean residual 0".5.
|